| time (UTC) | temp F | wind direction | speed MPH | gust MPH | rain 1hr in | rain 24hr in | rain mn in | humidity % | barometer mb |
| 20260507140036 | 47 | 217 | 5.0 | 13.0 | 0.00 | 0.47 | 0.01 | 64 | 1008.2 |
| 20260507134534 | 46 | 273 | 8.0 | 19.0 | 0.00 | 0.53 | 0.01 | 63 | 1008.1 |
| 20260507133032 | 47 | 267 | 2.0 | 13.0 | 0.00 | 0.53 | 0.01 | 75 | 1008.2 |
| 20260507131533 | 47 | 216 | 3.0 | 10.0 | 0.00 | 0.53 | 0.01 | 79 | 1007.9 |
| 20260507130028 | 46 | 197 | 4.0 | 10.0 | 0.00 | 0.53 | 0.01 | 77 | 1008.1 |
| 20260507124539 | 45 | 240 | 4.0 | 11.0 | 0.00 | 0.63 | 0.01 | 85 | 1008.2 |
| 20260507123019 | 44 | 209 | 3.0 | 9.0 | 0.00 | 0.63 | 0.01 | 90 | 1008.1 |
| 20260507121517 | 42 | 209 | 4.0 | 7.0 | 0.00 | 0.63 | 0.01 | 91 | 1008.0 |
| 20260507120014 | 41 | 211 | 2.0 | 6.0 | 0.00 | 0.63 | 0.01 | 96 | 1007.9 |
| 20260507114512 | 42 | 188 | 1.0 | 6.0 | 0.00 | 0.68 | 0.01 | 97 | 1007.8 |
| 20260507113016 | 42 | 189 | 1.0 | 4.0 | 0.00 | 0.68 | 0.01 | 98 | 1007.8 |
| 20260507111515 | 42 | 243 | 1.0 | 5.0 | 0.00 | 0.68 | 0.01 | 97 | 1007.8 |
| 20260507110024 | 41 | 257 | 0.0 | 0.0 | 0.00 | 0.68 | 0.01 | 98 | 1007.8 |
| 20260507104510 | 41 | 257 | 0.0 | 0.0 | 0.00 | 0.70 | 0.01 | 98 | 1007.7 |
| 20260507103010 | 41 | 257 | 0.0 | 0.0 | 0.00 | 0.70 | 0.01 | 98 | 1007.6 |
| 20260507101510 | 40 | 257 | 0.0 | 2.0 | 0.00 | 0.70 | 0.01 | 97 | 1007.7 |
| 20260507100018 | 40 | 257 | 0.0 | 4.0 | 0.00 | 0.70 | 0.01 | 97 | 1007.6 |
| 20260507094508 | 40 | 105 | 0.0 | 0.0 | 0.00 | 0.75 | 0.01 | 97 | 1007.5 |
| 20260507093008 | 40 | 105 | 0.0 | 0.0 | 0.00 | 0.75 | 0.01 | 97 | 1007.6 |
| 20260507091506 | 40 | 105 | 0.0 | 0.0 | 0.00 | 0.75 | 0.01 | 97 | 1007.6 |
| 20260507090007 | 40 | 105 | 0.0 | 0.0 | 0.00 | 0.75 | 0.01 | 97 | 1007.5 |
| 20260507084502 | 40 | 105 | 0.0 | 0.0 | 0.00 | 0.79 | 0.01 | 97 | 1007.6 |
| 20260507083002 | 41 | 105 | 0.0 | 0.0 | 0.00 | 0.79 | 0.01 | 97 | 1007.8 |
| 20260507081503 | 41 | 105 | 1.0 | 3.0 | 0.00 | 0.79 | 0.01 | 97 | 1007.7 |
| 20260507080001 | 41 | 105 | 0.0 | 2.0 | 0.01 | 0.79 | 0.01 | 97 | 1007.8 |
| 20260507074612 | 41 | 105 | 1.0 | 3.0 | 0.01 | 0.82 | 0.01 | 97 | 1007.9 |
| 20260507073057 | 41 | 96 | 0.0 | 0.0 | 0.01 | 0.82 | 0.01 | 97 | 1007.8 |
| 20260507071557 | 41 | 96 | 0.0 | 0.0 | 0.01 | 0.82 | 0.01 | 97 | 1007.6 |
| 20260507070111 | 41 | 96 | 0.0 | 0.0 | 0.00 | 0.81 | 0.00 | 97 | 1007.4 |
| 20260507064604 | 41 | 96 | 0.0 | 0.0 | 0.00 | 0.82 | 0.00 | 97 | 1007.3 |
| 20260507063058 | 41 | 96 | 0.0 | 0.0 | 0.00 | 0.82 | 0.00 | 97 | 1007.5 |
| 20260507061552 | 41 | 96 | 0.0 | 0.0 | 0.00 | 0.82 | 0.00 | 97 | 1007.6 |
| 20260507060050 | 41 | 96 | 0.0 | 0.0 | 0.00 | 0.82 | 0.00 | 97 | 1007.6 |
| 20260507054553 | 42 | 96 | 0.0 | 0.0 | 0.00 | 0.83 | 0.00 | 97 | 1007.7 |
| 20260507053048 | 41 | 96 | 0.0 | 0.0 | 0.00 | 0.83 | 0.00 | 96 | 1007.7 |
| 20260507051546 | 42 | 96 | 0.0 | 0.0 | 0.00 | 0.83 | 0.00 | 97 | 1008.1 |
| 20260507050043 | 42 | 96 | 0.0 | 0.0 | 0.00 | 0.83 | 0.00 | 96 | 1008.3 |
| 20260507044543 | 42 | 96 | 0.0 | 0.0 | 0.00 | 0.87 | 0.00 | 96 | 1008.2 |
| 20260507043040 | 42 | 96 | 0.0 | 0.0 | 0.00 | 0.87 | 0.00 | 96 | 1008.4 |
| 20260507041538 | 42 | 96 | 0.0 | 0.0 | 0.00 | 0.87 | 0.00 | 96 | 1008.2 |
| 20260507040035 | 43 | 96 | 0.0 | 0.0 | 0.00 | 0.87 | 0.00 | 96 | 1008.4 |
| 20260507034538 | 43 | 96 | 0.0 | 0.0 | 0.00 | 0.92 | 0.87 | 96 | 1008.2 |
| 20260507033033 | 43 | 96 | 0.0 | 0.0 | 0.00 | 0.92 | 0.87 | 96 | 1008.4 |
| 20260507031532 | 43 | 96 | 0.0 | 2.0 | 0.00 | 0.92 | 0.87 | 96 | 1008.5 |
| 20260507030032 | 43 | 96 | 0.0 | 0.0 | 0.00 | 0.92 | 0.87 | 96 | 1008.5 |
| 20260507024530 | 43 | 96 | 0.0 | 1.0 | 0.00 | 0.93 | 0.87 | 96 | 1008.4 |
| 20260507023030 | 43 | 96 | 0.0 | 7.0 | 0.00 | 0.93 | 0.87 | 96 | 1008.2 |
| 20260507021531 | 44 | 126 | 0.0 | 3.0 | 0.00 | 0.93 | 0.87 | 96 | 1008.5 |
| 20260507020039 | 44 | 126 | 0.0 | 4.0 | 0.00 | 0.93 | 0.87 | 96 | 1008.5 |
| 20260507014527 | 44 | 126 | 0.0 | 3.0 | 0.01 | 0.93 | 0.87 | 96 | 1008.5 |
| 20260507013041 | 44 | 126 | 0.0 | 0.0 | 0.02 | 0.93 | 0.87 | 96 | 1008.6 |
| 20260507011526 | 44 | 126 | 0.0 | 0.0 | 0.03 | 0.93 | 0.87 | 96 | 1008.5 |
| 20260507010033 | 44 | 126 | 0.0 | 0.0 | 0.03 | 0.93 | 0.87 | 96 | 1008.2 |
| 20260507004524 | 44 | 126 | 0.0 | 0.0 | 0.02 | 0.92 | 0.86 | 96 | 1008.1 |
| 20260507003024 | 44 | 126 | 0.0 | 0.0 | 0.01 | 0.91 | 0.85 | 96 | 1007.9 |
| 20260507001529 | 44 | 126 | 0.0 | 2.0 | 0.00 | 0.90 | 0.84 | 95 | 1007.6 |
| 20260507000023 | 44 | 126 | 0.0 | 3.0 | 0.00 | 0.90 | 0.84 | 95 | 1007.2 |
| 20260506234529 | 44 | 126 | 0.0 | 2.0 | 0.00 | 0.90 | 0.84 | 95 | 1007.1 |
| 20260506233022 | 44 | 126 | 1.0 | 3.0 | 0.00 | 0.90 | 0.84 | 95 | 1006.9 |
| 20260506231526 | 45 | 126 | 1.0 | 4.0 | 0.00 | 0.90 | 0.84 | 95 | 1006.6 |
| 20260506230026 | 45 | 127 | 0.0 | 1.0 | 0.00 | 0.90 | 0.84 | 95 | 1006.8 |
| 20260506224520 | 45 | 127 | 1.0 | 4.0 | 0.01 | 0.90 | 0.84 | 95 | 1006.7 |
| 20260506223020 | 45 | 127 | 2.0 | 5.0 | 0.01 | 0.90 | 0.84 | 95 | 1006.8 |
| 20260506221520 | 45 | 127 | 2.0 | 7.0 | 0.01 | 0.90 | 0.84 | 96 | 1006.6 |
| 20260506220027 | 45 | 134 | 3.0 | 5.0 | 0.02 | 0.90 | 0.84 | 96 | 1006.5 |
| 20260506214518 | 45 | 106 | 2.0 | 6.0 | 0.02 | 0.89 | 0.83 | 96 | 1006.6 |
| 20260506213018 | 45 | 105 | 5.0 | 9.0 | 0.02 | 0.89 | 0.83 | 96 | 1006.4 |
| 20260506211525 | 45 | 103 | 4.0 | 7.0 | 0.03 | 0.89 | 0.83 | 96 | 1006.4 |
| 20260506210026 | 45 | 92 | 2.0 | 4.0 | 0.03 | 0.88 | 0.82 | 96 | 1006.5 |
| 20260506204517 | 45 | 92 | 2.0 | 6.0 | 0.02 | 1.00 | 0.81 | 95 | 1006.6 |
| 20260506203016 | 45 | 93 | 2.0 | 4.0 | 0.03 | 1.00 | 0.81 | 95 | 1006.4 |
| 20260506201516 | 45 | 95 | 0.0 | 6.0 | 0.04 | 0.99 | 0.80 | 95 | 1006.3 |
| 20260506200032 | 45 | 96 | 0.0 | 4.0 | 0.05 | 0.98 | 0.79 | 96 | 1006.2 |
| 20260506194514 | 45 | 94 | 2.0 | 6.0 | 0.06 | 1.06 | 0.79 | 96 | 1006.2 |
| 20260506193013 | 45 | 84 | 2.0 | 6.0 | 0.05 | 1.05 | 0.78 | 95 | 1006.3 |
| 20260506191513 | 45 | 83 | 2.0 | 6.0 | 0.03 | 1.03 | 0.76 | 95 | 1006.3 |
| 20260506190011 | 45 | 71 | 1.0 | 4.0 | 0.02 | 1.01 | 0.74 | 95 | 1006.5 |
| 20260506184511 | 45 | 40 | 2.0 | 6.0 | 0.04 | 1.02 | 0.73 | 95 | 1006.4 |
| 20260506183010 | 45 | 74 | 3.0 | 6.0 | 0.07 | 1.02 | 0.73 | 95 | 1006.5 |
| 20260506181513 | 45 | 51 | 2.0 | 9.0 | 0.08 | 1.02 | 0.73 | 96 | 1006.7 |
| 20260506180015 | 44 | 104 | 4.0 | 7.0 | 0.08 | 1.01 | 0.72 | 95 | 1007.0 |
| 20260506174506 | 44 | 99 | 2.0 | 9.0 | 0.06 | 0.98 | 0.69 | 95 | 1007.1 |
| 20260506173005 | 44 | 81 | 7.0 | 10.0 | 0.06 | 0.95 | 0.66 | 95 | 1007.0 |
| 20260506171504 | 45 | 81 | 5.0 | 9.0 | 0.07 | 0.94 | 0.65 | 95 | 1007.0 |
| 20260506170004 | 45 | 81 | 5.0 | 10.0 | 0.08 | 0.93 | 0.64 | 95 | 1006.9 |
| 20260506164502 | 45 | 103 | 4.0 | 8.0 | 0.09 | 0.91 | 0.62 | 95 | 1007.2 |
| 20260506163002 | 45 | 47 | 3.0 | 6.0 | 0.09 | 0.89 | 0.60 | 95 | 1007.0 |
| 20260506161501 | 45 | 105 | 1.0 | 4.0 | 0.09 | 0.87 | 0.57 | 95 | 1007.6 |
| 20260506160004 | 45 | 106 | 3.0 | 6.0 | 0.09 | 0.85 | 0.56 | 95 | 1007.2 |
| 20260506154600 | 45 | 45 | 1.0 | 7.0 | 0.07 | 0.82 | 0.53 | 95 | 1007.3 |
| 20260506153102 | 45 | 84 | 3.0 | 7.0 | 0.07 | 0.80 | 0.51 | 95 | 1007.1 |
| 20260506151558 | 45 | 74 | 3.0 | 8.0 | 0.06 | 0.78 | 0.49 | 95 | 1007.1 |
| 20260506150059 | 45 | 77 | 2.0 | 6.0 | 0.05 | 0.76 | 0.47 | 95 | 1007.3 |
| 20260506144557 | 45 | 93 | 2.0 | 4.0 | 0.05 | 0.74 | 0.45 | 95 | 1007.5 |
| 20260506143058 | 45 | 96 | 0.0 | 4.0 | 0.04 | 0.73 | 0.44 | 95 | 1007.8 |
| 20260506141611 | 45 | 84 | 2.0 | 6.0 | 0.04 | 0.72 | 0.43 | 95 | 1007.3 |